sat.trackr.live / text

‹ back to catalog

IRIDE-MS2-HEO-9

NORAD 64585 · 2025-135BK

PAYLOAD ACTIVE UNKNOWN

§ Identity

Operator
Country
IT
Launch date
2025-06-23
Launch site
AFWTR
Launch vehicle
Mass (kg)
RCS (m²)

External: N2YO · Heavens-Above · Gunter

§ Orbital elements

Epoch: 2026-05-25T03:45:34.189344Z

Period
96.52 min
Inclination
97.7733°
Eccentricity
0.0002994
Mean motion
14.91879559 rev/d
Perigee alt
590.0 km
Apogee alt
594.2 km
Semi-major
6,970.2 km
B*
1.3845e-4
RAAN
259.9981°
Arg perigee
87.9057°
Mean anomaly
272.2504°
Rev number
5,046

§ Raw data

IRIDE-MS2-HEO-91 64585U 25135BK  26145.15664571  .00001343  00000+0  13845-3 0  99912 64585  97.7733 259.9981 0002994  87.9057 272.2504 14.91879559 50464

JSON: /api/v1/satellites/64585 · /tle

For live sub-satellite position, see the globe view (requires WebGL).

§ Visibility from observer

Set your observer location to see the next 7 days of passes ≥ 10°. The values pass through the URL so the page stays shareable.

No JS? Fill the form by hand. The geolocation button needs JavaScript.

§ Radio — SatNOGS DB

ModeDescriptionDownlinkUplink
FM Mode S - Transmitter 2.264 GHz

1 transmitter · refreshed weekly from db.satnogs.org